Port Hedland, Australia

12:43 AM AWST on February 20, 2018 (GMT +0800)
Port Hedland International

Weather History for YPPD - February, 2014

Change the Weather History Date:

Thursday, February 20, 2014

  Actual Average Record
Temperature  
Mean Temperature 86 °F -  
Max Temperature 100 °F 98 °F 115 °F (2015)
Min Temperature 73 °F 77 °F 39 °F (2004)
Cooling Degree Days 22    
Growing Degree Days 36 (Base 50)    
Moisture  
Dew Point 61 °F    
Average Humidity 46    
Maximum Humidity 78    
Minimum Humidity 10    
Precipitation  
Precipitation 0.00 in 0.09 in - ()
Sea Level Pressure  
Sea Level Pressure 29.78 in    
Wind  
Wind Speed 8 mph ()    
Max Wind Speed 16 mph    
Max Gust Speed 31 mph    
Visibility 7.7 miles    
Events      
Averages and records for this station are not official NWS values.
T = Trace of Precipitation, MM = Missing Value Source: Averaged Metar Reports

Daily Weather History Graph

Daily Weather History Graph

Search for Another Location

Airport or City:

Trip Planner

Search our weather history database for the weather conditions in past years. The results will help you decide how hot, cold, wet, or windy it might be!

Date:

Astronomy

Feb. 20, 2014 Rise Set
Actual Time 5:59 AM AWST 6:39 PM AWST
Civil Twilight 5:36 AM AWST 7:01 PM AWST
Nautical Twilight 5:09 AM AWST 7:28 PM AWST
Astronomical Twilight 4:42 AM AWST 7:55 PM AWST
Moon 9:58 PM AWST (2/20) 10:10 AM AWST (2/20)
Length of Visible Light 13h 25m
Length of Day
12h 40m
Waning Gibbous, 76% of the Moon is Illuminated
Feb 20
Waning Gibbous
Feb 23
Last Quarter
Mar 1
New
Mar 8
First Quarter
Mar 17
Full

Hourly Weather History & Observations

Time (AWST) Temp. Heat Index Dew Point Humidity Pressure Visibility Wind Dir Wind Speed Gust Speed Precip Events Conditions
12:00 AM 79 °F - 68 °F 62% 29.77 in - SSW 6.9 mph - -  
12:00 AM 78.8 °F - 68.0 °F 69% 29.77 in 6.2 mi SSW 6.9 mph - N/A   Unknown
12:30 AM 77.0 °F - 68.0 °F 74% 29.77 in 6.2 mi SSW 6.9 mph - N/A   Unknown
1:00 AM 78.8 °F - 66.2 °F 65% 29.77 in 6.2 mi SSW 5.8 mph - N/A   Unknown
1:30 AM 78.8 °F - 64.4 °F 61% 29.77 in 6.2 mi SW 9.2 mph - N/A   Unknown
2:00 AM 79 °F - 65 °F 53% 29.77 in - SW 9.2 mph - -  
2:00 AM 78.8 °F - 64.4 °F 61% 29.77 in 6.2 mi SW 9.2 mph - N/A   Unknown
2:30 AM 77.0 °F - 66.2 °F 69% 29.77 in 6.2 mi SW 6.9 mph - N/A   Unknown
3:00 AM 76 °F - 67 °F 68% 29.77 in - SW 8.1 mph - -  
3:00 AM 77.0 °F - 68.0 °F 74% 29.77 in 6.2 mi SW 8.1 mph - N/A   Unknown
3:30 AM 75.2 °F - 68.0 °F 78% 29.77 in 6.2 mi SSW 5.8 mph - N/A   Unknown
4:00 AM 75.2 °F - 68.0 °F 78% 29.77 in 6.2 mi South 6.9 mph - N/A   Unknown
4:30 AM 75.2 °F - 66.2 °F 73% 29.77 in 6.2 mi South 6.9 mph - N/A   Unknown
5:00 AM 75 °F - 64 °F 61% 29.80 in - SSE 6.9 mph - -  
5:00 AM 75.2 °F - 64.4 °F 69% 29.80 in 6.2 mi SSE 6.9 mph - N/A   Unknown
5:30 AM 77.0 °F - 60.8 °F 57% 29.80 in 6.2 mi SE 6.9 mph - N/A   Unknown
6:00 AM 74 °F - 60 °F 52% 29.82 in 19 mi SSE 6.9 mph - -   Partly Cloudy
6:00 AM 73.4 °F - 60.8 °F 65% 29.80 in - SSE 6.9 mph - N/A   Clear
6:30 AM 75.2 °F - 57.2 °F 53% 29.83 in - SSE 6.9 mph - N/A   Clear
7:00 AM 80.6 °F 80.8 °F 57.2 °F 45% 29.83 in - SSE 5.8 mph - N/A   Clear
7:30 AM 84.2 °F 83.0 °F 55.4 °F 37% 29.83 in - SSE 8.1 mph - N/A   Clear
8:00 AM 87 °F - 50 °F 18% 29.84 in - SSE 9.2 mph - -  
8:00 AM 87.8 °F - 50.0 °F 27% 29.83 in - SSE 9.2 mph - N/A   Clear
8:30 AM 89.6 °F - 51.8 °F 27% 29.83 in - SE 9.2 mph - N/A   Clear
9:00 AM 91 °F - 45 °F 12% 29.84 in 19 mi ESE 12.7 mph - -   Partly Cloudy
9:00 AM 91.4 °F - 44.6 °F 20% 29.83 in 6.2 mi ESE 12.7 mph - N/A   Unknown
9:30 AM 93.2 °F - 44.6 °F 19% 29.83 in - ESE 15.0 mph - N/A   Clear
10:00 AM 93.2 °F - 44.6 °F 19% 29.83 in - ESE 13.8 mph - N/A   Clear
10:30 AM 95.0 °F - 41.0 °F 15% 29.80 in - ESE 16.1 mph - N/A   Clear
11:00 AM 96 °F - 45 °F 10% 29.82 in - East 12.7 mph - -  
11:00 AM 96.8 °F - 44.6 °F 17% 29.80 in - East 12.7 mph - N/A   Clear
11:30 AM 98.6 °F - 46.4 °F 17% 29.80 in 6.2 mi East 12.7 mph - N/A   Unknown
12:00 PM 99 °F - 49 °F 10% 29.79 in 19 mi East 12.7 mph - -   Partly Cloudy
12:00 PM 98.6 °F - 48.2 °F 18% 29.77 in - East 12.7 mph 31.1 mph N/A   Clear
12:30 PM 98.6 °F - 51.8 °F 21% 29.77 in - NNE 11.5 mph - N/A   Clear
1:00 PM 98.6 °F - 48.2 °F 18% 29.77 in - NNE 15.0 mph - N/A   Clear
1:30 PM 98.6 °F - 51.8 °F 21% 29.74 in - NNE 13.8 mph - N/A   Clear
2:00 PM 99 °F - 55 °F 15% 29.75 in - North 11.5 mph - -  
2:00 PM 98.6 °F 97.2 °F 55.4 °F 24% 29.74 in - North 11.5 mph - N/A   Clear
2:30 PM 98.6 °F 96.4 °F 53.6 °F 22% 29.74 in - North 12.7 mph - N/A   Clear
3:00 PM 98 °F - 55 °F 15% 29.74 in 19 mi North 12.7 mph - -   Partly Cloudy
3:00 PM 98.6 °F 97.2 °F 55.4 °F 24% 29.74 in - North 12.7 mph - N/A   Clear
3:30 PM 96.8 °F 95.1 °F 55.4 °F 25% 29.74 in 6.2 mi North 12.7 mph - N/A   Unknown
4:00 PM 95.0 °F 95.2 °F 60.8 °F 32% 29.74 in 6.2 mi North 13.8 mph - N/A   Unknown
4:30 PM 95.0 °F 96.0 °F 62.6 °F 34% 29.71 in 6.2 mi North 13.8 mph - N/A   Unknown
5:00 PM 95 °F - 63 °F 25% 29.73 in - North 12.7 mph - -  
5:00 PM 95.0 °F 96.0 °F 62.6 °F 34% 29.71 in 6.2 mi North 12.7 mph - N/A   Unknown
5:30 PM 93.2 °F 94.9 °F 64.4 °F 38% 29.74 in 6.2 mi North 11.5 mph - N/A   Unknown
6:00 PM 91 °F - 67 °F 36% 29.74 in - NNW 9.2 mph - -  
6:00 PM 91.4 °F 95.4 °F 68.0 °F 46% 29.74 in 6.2 mi NNW 9.2 mph - N/A   Unknown
6:30 PM 87.8 °F 92.6 °F 69.8 °F 55% 29.74 in 6.2 mi NW 6.9 mph - N/A   Unknown
7:00 PM 86.0 °F 90.4 °F 69.8 °F 58% 29.77 in 6.2 mi NNW 6.9 mph - N/A   Unknown
7:30 PM 84.2 °F 90.9 °F 73.4 °F 70% 29.77 in 6.2 mi NNW 6.9 mph - N/A   Unknown
8:00 PM 83 °F - 73 °F 64% 29.79 in - NW 5.8 mph - -  
8:00 PM 82.4 °F 88.2 °F 73.4 °F 74% 29.77 in 6.2 mi NW 5.8 mph - N/A   Unknown
8:30 PM 82.4 °F 88.2 °F 73.4 °F 74% 29.80 in 6.2 mi WNW 5.8 mph - N/A   Unknown
9:00 PM 82 °F - 74 °F 69% 29.80 in - West 4.6 mph - -  
9:00 PM 82.4 °F 88.2 °F 73.4 °F 74% 29.80 in 6.2 mi West 4.6 mph - N/A   Unknown
9:30 PM 82.4 °F 88.2 °F 73.4 °F 74% 29.80 in 6.2 mi SW 6.9 mph - N/A   Unknown
10:00 PM 82.4 °F 88.2 °F 73.4 °F 74% 29.80 in 6.2 mi SW 3.5 mph - N/A   Unknown
10:30 PM 82.4 °F 87.2 °F 71.6 °F 70% 29.80 in 6.2 mi South 4.6 mph - N/A   Unknown
11:00 PM 81 °F - 71 °F 65% 29.82 in - South 5.8 mph - -  
11:00 PM 80.6 °F 84.6 °F 71.6 °F 74% 29.80 in 6.2 mi South 5.8 mph - N/A   Unknown
11:30 PM 80.6 °F 84.6 °F 71.6 °F 74% 29.80 in 6.2 mi SSW 3.5 mph - N/A   Unknown